Time,TemperatureF,DewpointF,PressureIn,WindDirection,WindDirectionDegrees,WindSpeedMPH,WindSpeedGustMPH,Humidity,HourlyPrecipIn,Conditions,Clouds,dailyrainin,SoftwareType,DateUTC
2013-12-17 00:00:00,16.3,3.8,28.97,NE,52,0.0,0.0,57,0.00,,OVC120,0.00,VWS V14.01,2013-12-17 06:00:00,
2013-12-17 00:15:00,16.3,3.8,28.97,NE,53,0.0,0.0,57,0.00,,OVC120,0.00,VWS V14.01,2013-12-17 06:15:00,
2013-12-17 00:30:00,16.3,3.8,28.97,NE,53,0.0,0.0,57,0.00,,OVC120,0.00,VWS V14.01,2013-12-17 06:30:00,
2013-12-17 00:45:00,16.3,3.8,28.97,NE,53,0.0,0.0,57,0.00,,OVC120,0.00,VWS V14.01,2013-12-17 06:45:00,
2013-12-17 01:00:00,16.3,3.8,28.97,NE,53,0.0,0.0,57,0.00,,OVC120,0.00,VWS V14.01,2013-12-17 07:00:00,
2013-12-17 01:15:00,16.3,3.8,28.97,NE,53,0.0,0.0,57,0.00,,BKN070,0.00,VWS V14.01,2013-12-17 07:15:00,
2013-12-17 01:30:00,16.3,3.8,28.94,SW,232,0.0,0.0,57,0.00,,BKN070,0.00,VWS V14.01,2013-12-17 07:30:00,
2013-12-17 01:45:00,16.3,3.8,28.94,WSW,240,0.0,0.0,57,0.00,,BKN070,0.00,VWS V14.01,2013-12-17 07:45:00,
2013-12-17 02:00:00,16.3,3.8,28.94,WSW,240,0.0,0.0,57,0.00,,BKN070,0.00,VWS V14.01,2013-12-17 08:00:00,
2013-12-17 02:15:00,16.3,3.8,28.94,SW,232,0.0,0.0,57,0.00,,FEW060,0.00,VWS V14.01,2013-12-17 08:15:00,
2013-12-17 02:30:00,16.3,3.8,28.94,SW,231,0.0,0.0,57,0.00,,FEW060,0.00,VWS V14.01,2013-12-17 08:30:00,
2013-12-17 02:45:00,16.3,3.8,28.94,SW,231,0.0,0.0,57,0.00,,FEW060,0.00,VWS V14.01,2013-12-17 08:45:00,
2013-12-17 03:00:00,16.3,3.8,28.97,SW,231,0.0,0.0,57,0.00,,FEW060,0.00,VWS V14.01,2013-12-17 09:00:00,
2013-12-17 03:15:00,16.3,3.8,28.97,WSW,248,0.0,0.0,57,0.00,,OVC050,0.00,VWS V14.01,2013-12-17 09:15:00,
2013-12-17 03:30:00,16.3,3.8,28.97,SW,226,0.0,0.0,57,0.00,,OVC050,0.00,VWS V14.01,2013-12-17 09:30:00,
2013-12-17 03:45:00,16.3,3.8,28.97,SW,220,0.0,0.0,57,0.00,,OVC050,0.00,VWS V14.01,2013-12-17 09:45:00,
2013-12-17 04:00:00,16.3,3.8,28.97,SW,235,0.0,0.0,57,0.00,,OVC050,0.00,VWS V14.01,2013-12-17 10:00:00,
2013-12-17 04:15:00,16.3,3.8,28.97,West,262,0.0,0.0,57,0.00,,OVC050,0.00,VWS V14.01,2013-12-17 10:15:00,
2013-12-17 04:30:00,16.3,3.8,28.97,WNW,297,0.0,0.0,57,0.00,,OVC050,0.00,VWS V14.01,2013-12-17 10:30:00,
2013-12-17 04:45:00,16.3,3.8,28.97,WSW,245,0.0,0.0,57,0.00,,OVC050,0.00,VWS V14.01,2013-12-17 10:45:00,
2013-12-17 05:00:00,16.3,3.8,28.97,SW,220,0.0,0.0,57,0.00,,OVC050,0.00,VWS V14.01,2013-12-17 11:00:00,
2013-12-17 05:15:00,16.3,3.8,28.97,SW,229,0.0,0.0,57,0.00,,OVC050,0.00,VWS V14.01,2013-12-17 11:15:00,
2013-12-17 05:30:00,16.3,3.8,28.97,SW,218,0.0,0.0,57,0.00,,OVC050,0.00,VWS V14.01,2013-12-17 11:30:00,
2013-12-17 05:45:00,16.3,3.8,28.97,SW,222,0.0,0.0,57,0.00,,OVC050,0.00,VWS V14.01,2013-12-17 11:45:00,
2013-12-17 06:00:00,16.3,3.8,28.97,NNW,342,0.0,0.0,57,0.00,,OVC050,0.00,VWS V14.01,2013-12-17 12:00:00,
2013-12-17 06:15:00,16.3,3.8,28.97,North,353,0.0,0.0,57,0.00,,FEW050,0.00,VWS V14.01,2013-12-17 12:15:00,
2013-12-17 06:30:00,16.3,3.8,29.00,NW,325,0.0,0.0,57,0.00,,FEW050,0.00,VWS V14.01,2013-12-17 12:30:00,
2013-12-17 06:45:00,16.3,3.8,28.97,NE,36,0.0,0.0,57,0.00,,FEW050,0.00,VWS V14.01,2013-12-17 12:45:00,
2013-12-17 07:00:00,16.3,3.8,29.00,East,92,0.0,0.0,57,0.00,,FEW050,0.00,VWS V14.01,2013-12-17 13:00:00,
2013-12-17 07:15:00,16.3,3.8,29.00,NE,52,0.0,0.0,57,0.00,,FEW060,0.00,VWS V14.01,2013-12-17 13:15:00,
2013-12-17 07:30:00,16.3,3.8,29.00,ENE,65,0.0,0.0,57,0.00,,FEW060,0.00,VWS V14.01,2013-12-17 13:30:00,
2013-12-17 07:45:00,16.3,3.8,29.03,NNE,30,0.0,0.0,57,0.00,,FEW060,0.00,VWS V14.01,2013-12-17 13:45:00,
2013-12-17 08:00:00,16.3,3.8,29.03,East,89,0.0,0.0,57,0.00,,FEW060,0.00,VWS V14.01,2013-12-17 14:00:00,
2013-12-17 08:15:00,16.3,3.8,29.03,WNW,292,0.0,0.0,57,0.00,,FEW060,0.00,VWS V14.01,2013-12-17 14:15:00,
2013-12-17 08:30:00,16.3,3.8,29.03,NNW,327,0.0,0.0,57,0.00,,FEW060,0.00,VWS V14.01,2013-12-17 14:30:00,
2013-12-17 08:45:00,16.3,3.8,29.03,ESE,112,0.0,0.0,57,0.00,,FEW060,0.00,VWS V14.01,2013-12-17 14:45:00,
2013-12-17 09:00:00,16.3,3.8,29.06,NW,325,0.0,0.0,57,0.00,,FEW060,0.00,VWS V14.01,2013-12-17 15:00:00,
2013-12-17 09:15:00,16.3,3.8,29.06,ENE,59,0.0,0.0,57,0.00,,FEW060,0.00,VWS V14.01,2013-12-17 15:15:00,
2013-12-17 09:30:00,16.3,3.8,29.06,East,92,0.0,0.0,57,0.00,,FEW060,0.00,VWS V14.01,2013-12-17 15:30:00,
2013-12-17 09:45:00,16.3,3.8,29.09,SE,128,0.0,0.0,57,0.00,,FEW060,0.00,VWS V14.01,2013-12-17 15:45:00,
2013-12-17 10:00:00,16.3,3.8,29.09,ESE,102,0.0,0.0,57,0.00,,FEW060,0.00,VWS V14.01,2013-12-17 16:00:00,
2013-12-17 10:15:00,16.3,3.8,29.09,North,10,0.0,0.0,57,0.00,,FEW065,0.00,VWS V14.01,2013-12-17 16:15:00,
2013-12-17 10:30:00,16.3,3.8,29.09,SE,137,0.0,0.0,57,0.00,,FEW065,0.00,VWS V14.01,2013-12-17 16:30:00,
2013-12-17 10:45:00,16.3,3.8,29.09,WSW,258,0.0,0.0,57,0.00,,FEW065,0.00,VWS V14.01,2013-12-17 16:45:00,
2013-12-17 11:00:00,16.3,3.8,29.09,ENE,62,0.0,0.0,57,0.00,,FEW065,0.00,VWS V14.01,2013-12-17 17:00:00,
2013-12-17 11:15:00,16.3,3.8,29.09,WNW,293,0.0,0.0,57,0.00,,FEW065,0.00,VWS V14.01,2013-12-17 17:15:00,
2013-12-17 11:30:00,16.3,3.8,29.09,ESE,105,0.0,0.0,57,0.00,,FEW065,0.00,VWS V14.01,2013-12-17 17:30:00,
2013-12-17 11:45:00,16.3,3.8,29.09,ESE,116,0.0,0.0,57,0.00,,FEW065,0.00,VWS V14.01,2013-12-17 17:45:00,
2013-12-17 12:00:00,16.3,3.8,29.09,NE,54,0.0,3.1,57,0.00,,FEW065,0.00,VWS V14.01,2013-12-17 18:00:00,
2013-12-17 12:15:00,16.3,3.8,29.09,East,93,0.0,2.7,57,0.00,,CLR,0.00,VWS V14.01,2013-12-17 18:15:00,
2013-12-17 12:30:00,16.3,3.8,29.09,SW,221,0.0,2.7,57,0.00,,CLR,0.00,VWS V14.01,2013-12-17 18:30:00,
2013-12-17 12:45:00,16.3,3.8,29.09,NE,47,0.0,3.1,57,0.00,,CLR,0.00,VWS V14.01,2013-12-17 18:45:00,
2013-12-17 13:00:00,16.3,3.8,29.06,WNW,292,0.0,2.7,57,0.00,,CLR,0.00,VWS V14.01,2013-12-17 19:00:00,
2013-12-17 13:15:00,16.3,3.8,29.06,South,185,0.0,0.0,57,0.00,,FEW250,0.00,VWS V14.01,2013-12-17 19:15:00,
2013-12-17 13:30:00,16.3,3.8,29.06,SSE,160,0.0,0.0,57,0.00,,FEW250,0.00,VWS V14.01,2013-12-17 19:30:00,
2013-12-17 13:45:00,16.3,3.8,29.06,East,79,0.0,0.0,57,0.00,,FEW250,0.00,VWS V14.01,2013-12-17 19:45:00,
2013-12-17 14:00:00,16.3,3.8,29.06,ESE,110,0.0,0.0,57,0.00,,FEW250,0.00,VWS V14.01,2013-12-17 20:00:00,
2013-12-17 14:15:00,16.3,3.8,29.06,East,79,0.0,0.0,57,0.00,,FEW250,0.00,VWS V14.01,2013-12-17 20:15:00,
2013-12-17 14:30:00,16.3,3.8,29.06,North,357,0.0,0.0,57,0.00,,FEW250,0.00,VWS V14.01,2013-12-17 20:30:00,
2013-12-17 14:45:00,16.3,3.8,29.06,North,357,0.0,0.0,57,0.00,,FEW250,0.00,VWS V14.01,2013-12-17 20:45:00,
2013-12-17 15:00:00,16.3,3.8,29.06,North,9,0.0,0.0,57,0.00,,FEW250,0.00,VWS V14.01,2013-12-17 21:00:00,
2013-12-17 15:15:00,16.3,3.8,29.06,NW,306,0.0,0.0,57,0.00,,SCT250,0.00,VWS V14.01,2013-12-17 21:15:00,
2013-12-17 15:30:00,16.3,3.8,29.06,North,349,0.0,0.0,57,0.00,,SCT250,0.00,VWS V14.01,2013-12-17 21:30:00,
2013-12-17 15:45:00,16.3,3.8,29.06,NNW,333,0.0,0.0,57,0.00,,SCT250,0.00,VWS V14.01,2013-12-17 21:45:00,
2013-12-17 16:00:00,16.3,3.8,29.06,West,279,0.0,0.0,57,0.00,,SCT250,0.00,VWS V14.01,2013-12-17 22:00:00,
2013-12-17 16:15:00,16.3,3.8,29.06,NNW,344,0.0,0.0,57,0.00,,SCT250,0.00,VWS V14.01,2013-12-17 22:15:00,
2013-12-17 16:30:00,16.3,3.8,29.06,NW,323,0.0,0.0,57,0.00,,SCT250,0.00,VWS V14.01,2013-12-17 22:30:00,
2013-12-17 16:45:00,16.3,3.8,29.06,North,350,0.0,0.0,57,0.00,,SCT250,0.00,VWS V14.01,2013-12-17 22:45:00,
2013-12-17 17:00:00,16.3,3.8,29.06,North,349,0.0,0.0,57,0.00,,SCT250,0.00,VWS V14.01,2013-12-17 23:00:00,
2013-12-17 17:15:00,16.3,3.8,29.03,North,349,0.0,0.0,57,0.00,,FEW250,0.00,VWS V14.01,2013-12-17 23:15:00,
2013-12-17 17:30:00,16.3,3.8,29.03,North,349,0.0,0.0,57,0.00,,FEW250,0.00,VWS V14.01,2013-12-17 23:30:00,
2013-12-17 17:45:00,16.3,3.8,29.03,North,349,0.0,0.0,57,0.00,,FEW250,0.00,VWS V14.01,2013-12-17 23:45:00,
2013-12-17 18:00:00,16.3,3.8,29.03,North,349,0.0,0.0,57,0.00,,FEW250,0.00,VWS V14.01,2013-12-18 00:00:00,
2013-12-17 18:15:00,16.3,3.8,29.03,North,349,0.0,0.0,57,0.00,,CLR,0.00,VWS V14.01,2013-12-18 00:15:00,
2013-12-17 18:30:00,0.0,0.0,29.03,NNW,348,0.0,0.0,0,0.00,,CLR,0.00,VWS V14.01,2013-12-18 00:30:00,
2013-12-17 18:45:00,0.0,0.0,29.03,North,349,0.0,0.0,0,0.00,,CLR,0.00,VWS V14.01,2013-12-18 00:45:00,
2013-12-17 19:00:00,0.0,0.0,29.03,North,349,0.0,0.0,0,0.00,,CLR,0.00,VWS V14.01,2013-12-18 01:00:00,
2013-12-17 19:15:00,0.0,0.0,29.03,North,349,0.0,0.0,0,0.00,,CLR,0.00,VWS V14.01,2013-12-18 01:15:00,
2013-12-17 19:30:00,0.0,0.0,29.03,North,349,0.0,0.0,0,0.00,,CLR,0.00,VWS V14.01,2013-12-18 01:30:00,
2013-12-17 19:45:00,0.0,0.0,29.03,North,349,0.0,0.0,0,0.00,,CLR,0.00,VWS V14.01,2013-12-18 01:45:00,
2013-12-17 20:00:00,0.0,0.0,29.03,North,349,0.0,0.0,0,0.00,,CLR,0.00,VWS V14.01,2013-12-18 02:00:00,
2013-12-17 20:15:00,0.0,0.0,29.00,North,349,0.0,0.0,0,0.00,,CLR,0.00,VWS V14.01,2013-12-18 02:15:00,
2013-12-17 20:30:00,0.0,0.0,29.00,North,349,0.0,0.0,0,0.00,,CLR,0.00,VWS V14.01,2013-12-18 02:30:00,
2013-12-17 20:45:00,0.0,0.0,29.00,North,349,0.0,0.0,0,0.00,,CLR,0.00,VWS V14.01,2013-12-18 02:45:00,
2013-12-17 21:00:00,0.0,0.0,29.00,North,349,0.0,0.0,0,0.00,,CLR,0.00,VWS V14.01,2013-12-18 03:00:00,
2013-12-17 21:15:00,0.0,0.0,28.97,North,349,0.0,0.0,0,0.00,,CLR,0.00,VWS V14.01,2013-12-18 03:15:00,
2013-12-17 21:30:00,0.0,0.0,28.97,North,349,0.0,0.0,0,0.00,,CLR,0.00,VWS V14.01,2013-12-18 03:30:00,
2013-12-17 21:45:00,0.0,0.0,28.97,North,349,0.0,0.0,0,0.00,,CLR,0.00,VWS V14.01,2013-12-18 03:45:00,
2013-12-17 22:00:00,0.0,0.0,28.97,NNW,334,0.0,0.0,0,0.00,,CLR,0.00,VWS V14.01,2013-12-18 04:00:00,
2013-12-17 22:15:00,0.0,0.0,28.97,West,264,0.0,0.0,0,0.00,,CLR,0.00,VWS V14.01,2013-12-18 04:15:00,
2013-12-17 22:30:00,0.0,0.0,28.97,West,263,0.0,0.0,0,0.00,,CLR,0.00,VWS V14.01,2013-12-18 04:30:00,
2013-12-17 22:45:00,0.0,0.0,28.97,West,263,0.0,0.0,0,0.00,,CLR,0.00,VWS V14.01,2013-12-18 04:45:00,
2013-12-17 23:00:00,0.0,0.0,28.94,West,262,0.0,0.0,0,0.00,,CLR,0.00,VWS V14.01,2013-12-18 05:00:00,
2013-12-17 23:15:00,0.0,0.0,28.94,West,262,0.0,0.0,0,0.00,,CLR,0.00,VWS V14.01,2013-12-18 05:15:00,
2013-12-17 23:30:00,0.0,0.0,28.94,West,262,0.0,0.0,0,0.00,,CLR,0.00,VWS V14.01,2013-12-18 05:30:00,
2013-12-17 23:45:00,0.0,0.0,28.91,West,260,0.0,0.0,0,0.00,,CLR,0.00,VWS V14.01,2013-12-18 05:45:00,